Tracking 31027 objects as of 19-Jul-2025
HD Live streaming from Space Station
objects crossing your sky now

SL-8 DEB *

Track SL-8 DEB * now!
10-day predictions


NORAD ID: 13499
Int'l Code: 1976-069D
Perigee: 685.8 km
Apogee: 705.6 km
Inclination: 74.1 °
Period: 98.5 minutes
Semi major axis: 7066 km
RCS: 0.0077 m2 (small)
Launch date: July 15, 1976
Source: Commonwealth of Independent States (former USSR) (CIS)
Launch site: PLESETSK MISSILE AND SPACE COMPLEX (PKMTR)

Note: This is SATELLITE DEBRIS
Your satellite tracking list
COSMOS 1656
Track 1 satellite(s)




NASA's NSSDC Master Catalog

Two Line Element Set (TLE):
1 13499U 76069D   25199.57226223  .00001249  00000-0  25796-3 0  9997
2 13499  74.0519 245.4416 0013983 211.2175 301.1981 14.61432748347134
Source of the keplerian elements: AFSPC